Total_Precipitation_Accumulation
0.66 0.76 0.64 0.41 0.33 0.28 0.25 0.23 0.18 0.13 0.12 0.15 0.12 0.07 0.03 0.04 0.06 0.05 0.03 0.03 0.02 0.02 0.01 0.02 0.02 0.03 0.04 0.07 0.10 0.12 0.13 0.21 0.25 0.25 0.29 0.32 0.30 0.31 0.33 0.32 0.29 0.31 0.32 0.33
0.71 0.54 0.29 0.23 0.24 0.29 0.31 0.28 0.20 0.15 0.11 0.16 0.14 0.08 0.04 0.04 0.05 0.04 0.04 0.03 0.02 0.02 0.01 0.02 0.04 0.04 0.04 0.05 0.08 0.11 0.12 0.16 0.22 0.22 0.23 0.27 0.27 0.30 0.32 0.33 0.33 0.33 0.33 0.32
0.59 0.32 0.18 0.26 0.34 0.39 0.38 0.30 0.21 0.20 0.17 0.17 0.16 0.12 0.05 0.03 0.03 0.03 0.03 0.03 0.02 0.02 0.02 0.03 0.04 0.05 0.06 0.06 0.07 0.10 0.11 0.13 0.18 0.24 0.27 0.33 0.36 0.34 0.35 0.34 0.32 0.33 0.33 0.33
0.46 0.25 0.25 0.32 0.34 0.34 0.35 0.22 0.20 0.25 0.35 0.35 0.24 0.22 0.07 0.04 0.04 0.03 0.02 0.02 0.01 0.02 0.02 0.02 0.03 0.04 0.06 0.08 0.09 0.11 0.14 0.13 0.14 0.19 0.28 0.32 0.34 0.31 0.26 0.26 0.28 0.31 0.32 0.32
0.54 0.26 0.30 0.33 0.24 0.23 0.24 0.19 0.25 0.31 0.43 0.43 0.27 0.27 0.09 0.04 0.05 0.03 0.01 0.01 0.01 0.01 0.01 0.02 0.02 0.02 0.05 0.07 0.09 0.11 0.16 0.17 0.15 0.15 0.20 0.28 0.33 0.32 0.32 0.32 0.32 0.33 0.35 0.35
0.42 0.29 0.32 0.28 0.19 0.23 0.31 0.38 0.48 0.52 0.69 0.69 0.23 0.18 0.09 0.05 0.04 0.03 0.01 0.01 0.02 0.02 0.02 0.03 0.03 0.04 0.04 0.05 0.07 0.11 0.13 0.17 0.17 0.19 0.19 0.25 0.31 0.34 0.38 0.42 0.39 0.36 0.36 0.36
0.53 0.38 0.36 0.32 0.36 0.39 0.56 0.85 1.20 1.24 1.09 0.56 0.10 0.10 0.09 0.05 0.04 0.02 0.01 0.01 0.01 0.03 0.03 0.03 0.03 0.06 0.06 0.04 0.06 0.09 0.13 0.16 0.17 0.19 0.21 0.23 0.27 0.30 0.34 0.40 0.40 0.39 0.37 0.38
0.59 0.47 0.32 0.31 0.39 0.48 0.53 0.68 0.89 0.86 0.52 0.19 0.06 0.07 0.06 0.05 0.03 0.02 0.01 0.01 0.02 0.03 0.03 0.03 0.03 0.03 0.04 0.05 0.05 0.08 0.10 0.13 0.17 0.20 0.22 0.24 0.26 0.28 0.28 0.33 0.39 0.41 0.39 0.37
0.62 0.42 0.21 0.19 0.23 0.34 0.51 0.50 0.42 0.59 0.45 0.28 0.14 0.08 0.06 0.03 0.02 0.02 0.02 0.02 0.03 0.03 0.03 0.03 0.03 0.02 0.03 0.03 0.04 0.06 0.08 0.09 0.12 0.17 0.23 0.25 0.25 0.27 0.26 0.27 0.33 0.38 0.37 0.35
0.76 0.59 0.29 0.24 0.32 0.37 0.42 0.50 0.59 0.87 0.81 0.43 0.17 0.08 0.09 0.05 0.03 0.03 0.03 0.04 0.05 0.05 0.04 0.04 0.03 0.03 0.03 0.04 0.04 0.06 0.09 0.10 0.11 0.13 0.18 0.23 0.25 0.27 0.27 0.27 0.29 0.34 0.38 0.40
0.75 0.83 0.55 0.45 0.49 0.45 0.41 0.58 0.80 0.86 0.67 0.47 0.26 0.14 0.12 0.08 0.05 0.04 0.04 0.04 0.06 0.07 0.08 0.07 0.05 0.03 0.04 0.05 0.07 0.07 0.11 0.12 0.14 0.14 0.16 0.20 0.27 0.30 0.33 0.35 0.36 0.37 0.42 0.47
0.73 0.98 0.75 0.50 0.38 0.32 0.39 0.46 0.62 0.83 0.66 0.40 0.33 0.17 0.10 0.08 0.06 0.04 0.04 0.04 0.06 0.08 0.10 0.09 0.06 0.06 0.06 0.07 0.09 0.11 0.14 0.15 0.16 0.16 0.18 0.20 0.26 0.33 0.37 0.41 0.44 0.47 0.49 0.52
1.06 1.33 1.12 0.79 0.61 0.57 0.59 0.51 0.51 0.65 0.70 0.54 0.44 0.20 0.07 0.06 0.06 0.06 0.05 0.05 0.06 0.08 0.08 0.08 0.08 0.08 0.09 0.10 0.11 0.15 0.18 0.17 0.18 0.19 0.20 0.23 0.27 0.34 0.42 0.47 0.50 0.51 0.55 0.61
1.33 1.42 1.05 0.81 0.61 0.59 0.63 0.51 0.48 0.67 0.91 0.61 0.31 0.15 0.07 0.07 0.08 0.08 0.07 0.07 0.06 0.05 0.07 0.09 0.09 0.10 0.11 0.12 0.13 0.18 0.21 0.20 0.22 0.26 0.27 0.31 0.38 0.43 0.48 0.53 0.54 0.55 0.57 0.63
1.39 1.36 0.73 0.42 0.28 0.29 0.35 0.34 0.37 0.48 0.51 0.45 0.26 0.17 0.14 0.12 0.11 0.11 0.10 0.09 0.08 0.07 0.08 0.11 0.12 0.11 0.13 0.15 0.16 0.21 0.26 0.29 0.34 0.40 0.42 0.42 0.43 0.47 0.47 0.49 0.52 0.55 0.59 0.62
1.21 1.23 0.73 0.49 0.29 0.27 0.29 0.25 0.26 0.31 0.29 0.26 0.20 0.20 0.16 0.12 0.09 0.08 0.08 0.10 0.10 0.09 0.10 0.11 0.14 0.14 0.14 0.18 0.25 0.31 0.38 0.41 0.44 0.48 0.51 0.49 0.45 0.45 0.49 0.50 0.50 0.53 0.58 0.58
1.08 1.14 1.06 0.70 0.37 0.50 0.51 0.28 0.25 0.27 0.28 0.25 0.25 0.22 0.16 0.12 0.10 0.09 0.09 0.11 0.11 0.11 0.10 0.11 0.13 0.18 0.19 0.24 0.33 0.40 0.43 0.45 0.48 0.50 0.54 0.56 0.49 0.45 0.48 0.50 0.49 0.48 0.49 0.51
0.79 0.91 1.26 0.97 0.71 0.91 0.44 0.18 0.20 0.22 0.24 0.25 0.24 0.21 0.17 0.15 0.12 0.09 0.09 0.11 0.14 0.15 0.16 0.16 0.17 0.20 0.24 0.30 0.36 0.42 0.46 0.49 0.50 0.50 0.49 0.50 0.44 0.39 0.41 0.46 0.45 0.42 0.42 0.46
0.45 0.78 1.32 1.22 0.94 0.54 0.18 0.12 0.18 0.24 0.29 0.27 0.25 0.22 0.19 0.16 0.13 0.13 0.13 0.13 0.14 0.15 0.15 0.15 0.15 0.17 0.22 0.28 0.32 0.34 0.38 0.40 0.41 0.40 0.38 0.39 0.36 0.35 0.40 0.45 0.42 0.38 0.37 0.39
0.44 0.74 1.37 1.34 1.06 0.52 0.19 0.10 0.13 0.23 0.33 0.25 0.22 0.23 0.22 0.23 0.36 0.25 0.19 0.14 0.11 0.10 0.10 0.10 0.11 0.12 0.14 0.19 0.22 0.23 0.25 0.27 0.30 0.31 0.31 0.36 0.33 0.31 0.36 0.42 0.40 0.38 0.37 0.39
0.74 1.13 1.35 1.14 0.98 0.44 0.17 0.10 0.14 0.37 0.45 0.27 0.24 0.24 0.28 0.37 0.43 0.28 0.19 0.16 0.14 0.11 0.10 0.11 0.13 0.16 0.18 0.21 0.22 0.21 0.20 0.21 0.22 0.24 0.26 0.33 0.35 0.33 0.33 0.36 0.38 0.38 0.38 0.40
0.64 0.87 0.90 0.89 1.07 0.57 0.18 0.17 0.33 0.46 0.31 0.26 0.26 0.28 0.35 0.32 0.23 0.19 0.19 0.19 0.16 0.14 0.14 0.14 0.17 0.23 0.27 0.27 0.22 0.19 0.16 0.15 0.16 0.19 0.22 0.28 0.35 0.33 0.32 0.34 0.35 0.35 0.39 0.43
0.50 0.63 0.67 0.66 0.61 0.35 0.25 0.29 0.32 0.30 0.30 0.31 0.39 0.39 0.38 0.35 0.28 0.26 0.23 0.19 0.16 0.15 0.16 0.18 0.19 0.24 0.28 0.25 0.19 0.17 0.16 0.14 0.14 0.17 0.21 0.26 0.32 0.32 0.32 0.33 0.35 0.35 0.38 0.44
0.35 0.36 0.47 0.45 0.34 0.26 0.23 0.20 0.20 0.22 0.27 0.31 0.33 0.36 0.39 0.42 0.36 0.31 0.28 0.26 0.22 0.20 0.20 0.20 0.19 0.22 0.25 0.21 0.16 0.16 0.15 0.13 0.14 0.17 0.22 0.27 0.32 0.34 0.34 0.33 0.33 0.36 0.42 0.57
0.30 0.30 0.33 0.33 0.26 0.23 0.23 0.22 0.22 0.23 0.22 0.20 0.21 0.26 0.36 0.42 0.38 0.30 0.29 0.29 0.30 0.28 0.25 0.24 0.23 0.24 0.23 0.18 0.14 0.15 0.18 0.20 0.21 0.22 0.26 0.31 0.34 0.35 0.36 0.35 0.35 0.40 0.45 0.68
0.27 0.29 0.31 0.31 0.24 0.24 0.25 0.22 0.22 0.25 0.23 0.23 0.24 0.26 0.27 0.31 0.31 0.27 0.28 0.29 0.29 0.30 0.31 0.28 0.25 0.21 0.19 0.17 0.15 0.16 0.18 0.23 0.25 0.26 0.29 0.33 0.39 0.40 0.40 0.39 0.39 0.42 0.46 0.56